{"data":{"norad_id":62567,"epoch":"2026-05-25T04:54:52.191936Z","epoch_age_seconds":54394,"freshness":"FRESH","line1":"1 62567U 25006P   26145.20477074  .00014555  00000+0  53720-3 0  9997","line2":"2 62567  43.0006 220.5528 0002520 283.0547  77.0023 15.27590306 76564","mean_motion":15.27590306,"eccentricity":0.000252,"inclination_deg":43.0006,"raan_deg":220.5528,"arg_perigee_deg":283.0547,"mean_anomaly_deg":77.0023,"bstar":0.0005372,"rev_number":7656,"period_min":94.26611273612,"perigee_km":481.28922522203,"apogee_km":484.74724746114,"semimajor_km":6861.1552363416,"source":"CELESTRAK","updated_at":"2026-05-25T13:38:19.729844Z"}}